Regional Weather Roundup
Issued by NWS

Home | Current Version | Previous Version | Text Only | Print | Product List | Glossary On
Versions: 1 2 3 4 5 6 7 8 9 10 11 12 13 14 15 16 17 18 19 20 21 22 23 24 25 26 27 28 29 30 31 32 33 34 35 36 37 38 39 40 41 42 43 44 45 46 47 48 49 50
000
ASHW40 PHFO 291812
RWRHI

WEATHER ROUNDUP FOR HAWAII
NATIONAL WEATHER SERVICE HONOLULU HI
800 AM HST SAT APR 29 2017

THIS IS AN AUTOMATED REPORT THAT HAS NOT BEEN QUALITY CONTROLLED.

NOTE..."FAIR" INDICATES FEW OR NO CLOUDS BELOW 12,000 FEET WITH NO
SIGNIFICANT WEATHER AND/OR OBSTRUCTIONS TO VISIBILITY.

* - THESE SITES REPORT LIMITED FIELDS

HIZ001>004-291900-
KAUAI-NIIHAU-

CITY           SKY/WX    TMP DP  RH WIND       PRES   REMARKS
LIHUE APT      CLOUDY    71  55  56 NW10      29.94R
PORT ALLEN*      N/A     68 N/A N/A N5          N/A
POIPU*           N/A     64 N/A N/A N5          N/A
PRINCEVILLE*     N/A     68 N/A N/A NW6G12      N/A
KOKOLE POINT*  NOT AVBL
MOLOAA DAIRY*    N/A     70  55  60 NW5G15      N/A
WAIMEA HTS*    NOT AVBL
PUU OPAE*      NOT AVBL
PUU LUA*       NOT AVBL
MAKAHA RIDGE*  NOT AVBL
$$

HIZ005>011-291900-
OAHU-

CITY           SKY/WX    TMP DP  RH WIND       PRES   REMARKS
HONOLULU       PTSUNNY   71  59  65 N12       29.90S
KALAELOA       CLOUDY    73  60  63 NE14G20   29.91R
KANEOHE MCB    NOT AVBL
WHEELER FIELD  FAIR      66  62  86 N12       29.91R
BELLOWS*       NOT AVBL
KAHUKU*        NOT AVBL
WHEELER*       NOT AVBL
WAIANAE HARBOR NOT AVBL
DILLINGHAM*      N/A     88  82  84 NE1G8       N/A  HX 108
KAHUKU TRN*      N/A     64  55  72 S5G13       N/A
KAWAILOA*        N/A     63  59  88 N6G14       N/A
KII*             N/A     72  59  64 NW10G18     N/A
MAKUA RANGE*     N/A    N/A N/A N/A W9G20       N/A
OAHU FOREST NW NOT AVBL
SCHOFIELD BRK*   N/A     63  57  82 MISG        N/A
SCHOFIELD S*   NOT AVBL
WAIANAE VLY*   NOT AVBL
KUAOKALA*      NOT AVBL
HONOULIUULI*   NOT AVBL
MOKUOLOE IS*   NOT AVBL
PALEHUA*       NOT AVBL
WAIAWA PHB*    NOT AVBL
$$

HIZ012>013-291900-
MOLOKAI-

CITY           SKY/WX    TMP DP  RH WIND       PRES   REMARKS
MOLOKAI AIRPT  LGT RAIN  69  64  84 N16       29.92F
KALAUPAPA      NOT AVBL
MAKAPULAPAI*   NOT AVBL
MOLOKAI 1*     NOT AVBL
PUU ALII*      NOT AVBL
$$

HIZ016-291900-
KAHOOLAWE-

CITY           SKY/WX    TMP DP  RH WIND       PRES   REMARKS
KAHOOLAWE*     NOT AVBL
HAKIOAWA*      NOT AVBL
HONOKANAIA*      N/A     74  67  80 SW8       29.83R
KANELOA*         N/A     70  68  94 SW3G13    29.96R
KEALIALALO*    NOT AVBL
LUA MAKIKA*    NOT AVBL
$$

HIZ014>015-291900-
LANAI-

CITY           SKY/WX    TMP DP  RH WIND       PRES   REMARKS
LANAI CITY     PTSUNNY   65  63  93 N17       29.94S
LANAI 1*       NOT AVBL
$$

HIZ017>028-291900-
MAUI-

CITY           SKY/WX    TMP DP  RH WIND       PRES   REMARKS
KAHULUI        RAIN      70  68  93 W8        29.92R FOG
KAPALUA-W MAUI LGT RAIN  68  64  88 N14G25    29.92
HANA AIRPORT   NOT AVBL
HANA*            N/A     72 N/A N/A S2          N/A
HALEAKALA SUMM   N/A     43  43 100 SW9G23      N/A
MAALAEA BAY*   NOT AVBL
HALEAKALA*     NOT AVBL
KAUPO GAP*     NOT AVBL
KULA 1*          N/A     52  52  99 SE6G12      N/A
$$

HIZ023>026-291900-
BIG ISLAND OF HAWAII COAST AND LOWER SLOPES-

CITY           SKY/WX    TMP DP  RH WIND       PRES   REMARKS
KAILUA KONA    MOSUNNY   77  64  64 S18       29.89R
HILO           MOSUNNY   70  60  70 CALM      29.89R
HONOKAA*         N/A     73 N/A N/A VRB1        N/A
KAWAIHAE MWT*    N/A     79 N/A N/A N6          N/A
KAWAIHAE*      NOT AVBL
SOUTH POINT*     N/A     73 N/A N/A NE2G9       N/A
UPOLU AIRPORT* NOT AVBL
KAMUELA*       CLEAR     70  59  68 W7        30.00R
HAKALAU*         N/A     59  49  70 NE3         N/A
KALOKO-HONOKO* NOT AVBL
PALI 2*          N/A     64  61  88 E6          N/A
KEALAKOMO*       N/A     72  68  88 NW5G12      N/A
KAUPULEHU*     NOT AVBL
KAPAPALA*        N/A     71  65  80 SW1         N/A
LOWER KAHUKU*  NOT AVBL
PUHE CS*       NOT AVBL
PUHO CS*       NOT AVBL
PTA KEAMUKU*     N/A     64  57  77 CALM        N/A
WAIKOLOA*      NOT AVBL
$$

HIZ027>028-291900-
BIG ISLAND OF HAWAII INTERIOR AND SUMMMITS-

CITY           SKY/WX    TMP DP  RH WIND       PRES   REMARKS
BRADSHAW FIELD MOSUNNY   59  43  56 CALM      30.20R
MK VISITOR CEN   N/A     48  19  32 E3          N/A
MAUNA KEA*       N/A     30  -9  17 SW40        N/A  WCI  13
MAUNA LOA*       N/A     45 -11   9 MISG        N/A
MAUNA LOA 1*   NOT AVBL
PTA KIPUKA*      N/A     63  45  51 S9G15       N/A
PTA RANGE 17*    N/A     66  50  55 E3          N/A
PTA WEST*        N/A     66  50  55 S12         N/A
NENE CABIN*    NOT AVBL
AHUMOA*        NOT AVBL
PTA PORTABLE*  NOT AVBL
PUU MALI*        N/A     57  48  72 NE6         N/A
$$

HIC003-291900-
NORTHWEST ISLANDS-

CITY           SKY/WX    TMP DP  RH WIND       PRES   REMARKS
MIDWAY ISLAND  PTCLDY    64  55  72 E8        30.29R
MIDWAY NOS*    NOT AVBL
FRENCH FRIGATE NOT AVBL
$$

PHZ110>124-180-291900-
BUOY REPORTS

STATION/POSITION TIME  TEMP    WIND        PRES    WAVE   SWELL
                       AIR SEA DIR/SP/G            HT/PER HT/DIR
                 (UTC) (F)     (DEG/KT/KT) (MB)    (FT/S) (FT/D)
BUOY 51001       1750   67 75   10/ 21/ 29 1015.8R  11/10   3/200
BUOY 51101       1750   67 75   10/ 19/ 25 1016.0R  10/ 8   5/330
BUOY 51100       NOT AVBL
BUOY 51002       1750   77 78  140/  6/  8 1012.6R   5/ 8   5/100
BUOY 51003       1750   75 79   20/ 21/ 27 1012.3R  10/10   5/350
BUOY 51004       1650      77  140/ 12/ 14 1012.6    6/ 8   5/ 70
BARBERS PT BUOY  NOT AVBL
WAIMEA BAY BUOY  1702      77                N/A     8/ 9   3/320
KAILUA BAY BUOY  1734      78                N/A     6/ 9   2/140
LANAI BUOY       1745      79                N/A     5/15   3/200
BARBERS PT 2     NOT AVBL
PAUWELA MAUI     1739      77                N/A     7/ 8   2/320
HILO             1742      78                N/A     5/ 9   2/340
KANEOHE BAY BUOY 1755      78                N/A     7/ 8   2/360
HANALEI KAUAI    1752      78                N/A     9/ 9   2/320
KAHULUI HARBOR   1736   71 78  330/  7/  9 1012.8R
HONOLULU HARBOR  1748   72 79  350/  5/ 10 1013.1R
KILO NALU        NOT AVBL
HILO HARBOR      1748   70 77  160/  2/  4 1011.9R
MOKUOLOE         1736   73 79  340/ 11/ 12 1012.9S
NAWILIWILI       1748   69     330/  9/ 16 1013.2R
WHOTS BUOY       NOT AVBL
BUOY 51028       NOT AVBL
$$

......................KEY........................................
  SKY/WX - SKY CONDITIONS/PRESENT WEATHER
  TMP    - TEMPERATURE IN FAHRENHEIT
  DWPT   - DEWPOINT IN FAHRENHEIT
  RH     - RELATIVE HUMIDITY IN PERCENT
  WIND   - DIRECTION AND SPEED /MPH FOR ISLANDS...KTS FOR BUOYS/
  PRES   - MEAN SEA LEVEL PRESSURE IN INCHES OF HG
  VSB    - VISIBILITY IN MILES
  HX     - HEAT INDEX
  WCI    - WIND CHILL INDEX
  VRB    - VARIABLE WIND DIRECTION
  N/A    - NOT AVAILABLE




USA.gov is the U.S. government's official web portal to all federal, state and local government web resources and services.